STARLINK-37502, 69263

Orbit data source: Space-Track

STARLINK-37502, 69263 is a payload satellite owned by SpaceX/Seattle (US) in LEO that was launched on Fri, 29 May 2026 UTC via an FALCON 9 launch vehicle from the Air Force Eastern Test Range (AFETR). Payload-class satellites include a variety of spacecraft equipped with specific instruments for various scientific and technological missions. These include communications satellites like Starlink; space stations such as the ISS; scientific satellites like the Hubble; Earth observation satellites from companies like Planet Labs, Umbra, and HawkEye 360; GPS; miniature CubeSats for education and research; and military/defense satellites.

Loading next visibility...
Identifier
69263, 2026-117AB
Orbit
LEO
Country
Flag of USUS
Related business
Manufacturer
SpaceX/Seattle
Mission
Operational spacecraft
Bus & Motor
STARLINK V2MO, Unknown motor
Mass
575 kg wet, ~530 kg dry
Launch date (UTC)
2026-05-29 (3 weeks ago)
Launch vehicle
FALCON 9
Launch site
Air Force Eastern Test Range (AFETR)
Object type
Payload
Rocket body
Debris
Shape & HBR
Unknown
Radar Cross Section
Large (>1 m²)

Expand to show TLE details & history
Last TLE update: 5 hours ago

TLE from 5 hours ago
0 STARLINK-37502
1 69263U 26117AB  26168.83335647 -.00030016  00000-0 -14892-3 0  9994
2 69263  53.1570 239.6412 0001037  79.4817  24.8200 15.80894184  4281
Epoch: 2026-06-17T20:00Z
TLE epoch observation values (Epoch: 2026-06-17T20:00:01.999Z)
Latitude
51.00014°
Longitude
146.61262°
Altitude
333.305 km
Speed
7.715 km/s
True Right ascension
23h 30m 49s
True Declination
50° 49' 16"
Sunlit
Object was in daylight at epoch
Visualization orbit readout
Latitude
Unknown
Longitude
Unknown
Altitude
Unknown
Speed
Unknown
Apparent Right ascension
Unknown
Apparent Declination
Unknown
Sunlit
N/A
Visualization observer readout
Local Sidereal Time
11:55:20
Azimuth
Unknown
Elevation
Unknown
Doppler factor
Unknown
Orbital elements
Apogee altitude
328.869 km
Perigee altitude
327.478 km
Semi-major axis
6,706.31 km
Eccentricity
0.0001
Inclination
53.157°
RAAN
239.6412°
Arg. of periapsis
79.4817°
True anomaly
24.82499°
Mean anomaly
24.82°
Eccentric anomaly
24.82249°
Mean motion
3.95201 °/min
Orbital period
91.09 mins
BSTAR
-0.00014892
Loading maneuver chart data...
Computing Atmospheric mass density...
Loading historical data...
Loading historical data...
Loading historical data...
Loading historical data...
Loading historical data...
Loading historical data...
Loading historical data...

Documentation

Showing up to 5 results
|